Voltar ao catálogo

AIST-2T NO. 1

AtivoCiênciaSSO
NORAD 67253·PAYLOAD·🇷🇺 Russia
Este nome de satélite ainda não foi confirmado por fontes oficiais.

Lançado Dec 28, 2025 de Vostochny Cosmodrome

Loading…

Próximas Passagens (próximas 24 horas)

TLE

AtualizadoSource: Space-Track

Época: Sep 14, 2026, 11:50 UTC

1 67253U 25313F   26257.49332491  .00015465  00000-0  18740-3 0  9998
2 67253  97.0749 334.9552 0004094 236.2988 123.7880 15.60722897 40557

Acompanhe AIST-2T NO. 1 em tempo real com AllMySat

Download on the App Store